Time,TemperatureF,DewpointF,PressureIn,WindDirection,WindDirectionDegrees,WindSpeedMPH,WindSpeedGustMPH,Humidity,HourlyPrecipIn,Conditions,Clouds,dailyrainin,SolarRadiationWatts/m^2,SoftwareType,DateUTC
2013-01-06 00:01:00,48.0,48.0,30.36,WSW,247,1.0,1.0,100,0.00,RA,,0.00,0.0,WeatherDisplay:10.37,2013-01-06 00:01:00,
2013-01-06 00:06:00,47.7,47.7,30.35,North,0,3.5,3.5,100,0.00,RA,,0.00,0.0,WeatherDisplay:10.37,2013-01-06 00:06:00,
2013-01-06 00:11:00,47.6,47.6,30.35,SW,223,0.0,0.0,100,0.00,CLR,,0.00,0.0,WeatherDisplay:10.37,2013-01-06 00:11:00,
2013-01-06 00:17:00,47.3,47.3,30.34,WSW,254,1.2,0.0,100,0.00,CLR,,0.00,0.0,WeatherDisplay:10.37,2013-01-06 00:17:00,
2013-01-06 00:22:00,47.1,47.1,30.34,WSW,251,1.2,1.2,100,0.00,CLR,,0.00,0.0,WeatherDisplay:10.37,2013-01-06 00:22:00,
2013-01-06 00:27:00,46.8,46.8,30.35,West,264,0.0,0.0,100,0.00,CLR,,0.00,0.0,WeatherDisplay:10.37,2013-01-06 00:27:00,
2013-01-06 00:32:00,46.5,46.5,30.35,West,268,0.0,0.0,100,0.00,CLR,,0.00,0.0,WeatherDisplay:10.37,2013-01-06 00:32:00,
2013-01-06 00:37:00,46.2,46.2,30.36,West,267,2.3,2.3,100,0.00,,,0.00,0.0,WeatherDisplay:10.37,2013-01-06 00:37:00,
2013-01-06 00:42:00,45.8,45.8,30.36,West,264,1.2,1.2,100,0.00,,,0.00,0.0,WeatherDisplay:10.37,2013-01-06 00:42:00,
2013-01-06 00:47:00,45.7,45.7,30.35,WSW,244,0.0,0.3,100,0.00,,,0.00,0.0,WeatherDisplay:10.37,2013-01-06 00:47:00,
2013-01-06 00:52:00,45.7,45.7,30.34,NW,309,4.6,4.6,100,0.00,,,0.00,0.0,WeatherDisplay:10.37,2013-01-06 00:52:00,
2013-01-06 00:57:00,45.7,45.7,30.34,WSW,237,3.5,3.5,100,0.00,,,0.00,0.0,WeatherDisplay:10.37,2013-01-06 00:57:00,
2013-01-06 01:03:00,45.5,45.5,30.36,WSW,237,0.0,0.0,100,0.00,,,0.00,0.0,WeatherDisplay:10.37,2013-01-06 01:03:00,
2013-01-06 01:08:00,45.2,45.2,30.36,WSW,237,0.0,0.0,100,0.00,,,0.00,0.0,WeatherDisplay:10.37,2013-01-06 01:08:00,
2013-01-06 01:13:00,44.9,44.9,30.36,WSW,237,0.0,0.0,100,0.00,,,0.00,0.0,WeatherDisplay:10.37,2013-01-06 01:13:00,
2013-01-06 01:18:00,44.9,44.9,30.36,NW,311,3.5,3.5,100,0.00,,,0.00,0.0,WeatherDisplay:10.37,2013-01-06 01:18:00,
2013-01-06 01:23:00,45.1,45.1,30.37,WNW,288,5.8,5.8,100,0.00,,,0.00,0.0,WeatherDisplay:10.37,2013-01-06 01:23:00,
2013-01-06 01:28:00,45.2,45.2,30.36,WNW,296,2.3,2.3,100,0.00,,,0.00,0.0,WeatherDisplay:10.37,2013-01-06 01:28:00,
2013-01-06 01:34:00,45.1,45.1,30.36,WNW,287,3.0,3.0,100,0.00,,,0.00,0.0,WeatherDisplay:10.37,2013-01-06 01:34:00,
2013-01-06 01:39:00,44.8,44.8,30.37,North,0,4.6,4.6,100,0.00,,,0.00,0.0,WeatherDisplay:10.37,2013-01-06 01:39:00,
2013-01-06 01:44:00,44.8,44.8,30.38,SW,232,2.3,2.3,100,0.00,,,0.00,0.0,WeatherDisplay:10.37,2013-01-06 01:44:00,
2013-01-06 01:49:00,44.8,44.8,30.37,West,278,3.5,3.5,100,0.00,,,0.00,0.0,WeatherDisplay:10.37,2013-01-06 01:49:00,
2013-01-06 01:54:00,44.8,44.8,30.38,SSW,213,1.2,1.2,100,0.00,,,0.00,0.0,WeatherDisplay:10.37,2013-01-06 01:54:00,
2013-01-06 01:59:00,45.1,45.1,30.37,SW,216,0.0,0.0,100,0.00,,,0.00,0.0,WeatherDisplay:10.37,2013-01-06 01:59:00,
2013-01-06 02:04:00,45.2,45.2,30.38,WSW,251,0.0,0.0,100,0.00,,,0.00,0.0,WeatherDisplay:10.37,2013-01-06 02:04:00,
2013-01-06 02:10:00,45.4,45.4,30.38,WSW,250,1.2,1.2,100,0.00,,,0.00,0.0,WeatherDisplay:10.37,2013-01-06 02:10:00,
2013-01-06 02:15:00,45.5,45.5,30.38,SW,234,2.3,2.3,100,0.00,,,0.00,0.0,WeatherDisplay:10.37,2013-01-06 02:15:00,
2013-01-06 02:20:00,46.2,46.2,30.37,West,270,0.0,0.0,100,0.00,,,0.00,0.0,WeatherDisplay:10.37,2013-01-06 02:20:00,
2013-01-06 02:25:00,46.5,46.5,30.38,NNW,330,5.8,5.8,100,0.00,CLR,,0.00,0.0,WeatherDisplay:10.37,2013-01-06 02:25:00,
2013-01-06 02:30:00,46.8,46.8,30.37,WNW,298,4.6,4.6,100,0.00,CLR,,0.00,0.0,WeatherDisplay:10.37,2013-01-06 02:30:00,
2013-01-06 02:35:00,47.0,47.0,30.38,NNW,337,3.5,3.5,100,0.00,CLR,,0.00,0.0,WeatherDisplay:10.37,2013-01-06 02:35:00,
2013-01-06 02:41:00,47.1,47.1,30.40,West,271,4.6,4.6,100,0.00,CLR,,0.00,0.0,WeatherDisplay:10.37,2013-01-06 02:41:00,
2013-01-06 02:46:00,47.3,47.3,30.40,West,275,3.5,3.5,100,0.00,CLR,,0.00,0.0,WeatherDisplay:10.37,2013-01-06 02:46:00,
2013-01-06 02:51:00,47.3,47.3,30.41,WNW,291,1.0,0.0,100,0.00,CLR,,0.00,0.0,WeatherDisplay:10.37,2013-01-06 02:51:00,
2013-01-06 02:56:00,47.3,47.3,30.40,WNW,296,2.3,0.0,100,0.00,CLR,,0.00,0.0,WeatherDisplay:10.37,2013-01-06 02:56:00,
2013-01-06 03:01:00,47.4,47.4,30.42,West,260,2.3,2.3,100,0.00,CLR,,0.00,0.0,WeatherDisplay:10.37,2013-01-06 03:01:00,
2013-01-06 03:06:00,47.6,47.6,30.41,NW,305,3.0,3.0,100,0.00,CLR,,0.00,0.0,WeatherDisplay:10.37,2013-01-06 03:06:00,
2013-01-06 03:11:00,47.6,47.6,30.41,WNW,299,1.0,1.0,100,0.00,CLR,,0.00,0.0,WeatherDisplay:10.37,2013-01-06 03:11:00,
2013-01-06 03:16:00,47.6,47.6,30.41,NW,304,1.2,1.2,100,0.00,CLR,,0.00,0.0,WeatherDisplay:10.37,2013-01-06 03:16:00,
2013-01-06 03:22:00,47.6,47.6,30.41,WSW,247,3.5,3.5,100,0.00,CLR,,0.00,0.0,WeatherDisplay:10.37,2013-01-06 03:22:00,
2013-01-06 03:27:00,47.7,47.7,30.41,WSW,257,3.5,3.5,100,0.00,CLR,,0.00,0.0,WeatherDisplay:10.37,2013-01-06 03:27:00,
2013-01-06 03:32:00,47.7,47.7,30.42,SW,232,5.0,5.0,100,0.00,CLR,,0.00,0.0,WeatherDisplay:10.37,2013-01-06 03:32:00,
2013-01-06 03:37:00,47.9,47.9,30.41,NNW,328,6.9,6.9,100,0.00,CLR,,0.00,0.0,WeatherDisplay:10.37,2013-01-06 03:37:00,
2013-01-06 03:42:00,47.9,47.9,30.42,North,357,3.5,3.5,100,0.00,CLR,,0.00,0.0,WeatherDisplay:10.37,2013-01-06 03:42:00,
2013-01-06 03:48:00,47.9,47.9,30.42,WSW,246,3.5,3.5,100,0.00,CLR,,0.00,0.0,WeatherDisplay:10.37,2013-01-06 03:48:00,
2013-01-06 03:53:00,47.9,47.9,30.42,South,176,2.3,2.3,100,0.00,CLR,,0.00,0.0,WeatherDisplay:10.37,2013-01-06 03:53:00,
2013-01-06 03:58:00,47.9,47.9,30.42,NNW,342,3.0,3.0,100,0.00,CLR,,0.00,0.0,WeatherDisplay:10.37,2013-01-06 03:58:00,
2013-01-06 04:03:00,48.0,48.0,30.42,NNW,343,4.6,4.6,100,0.00,CLR,,0.00,0.0,WeatherDisplay:10.37,2013-01-06 04:03:00,
2013-01-06 04:08:00,48.0,48.0,30.42,NNW,333,5.8,5.8,100,0.00,CLR,,0.00,0.0,WeatherDisplay:10.37,2013-01-06 04:08:00,
2013-01-06 04:13:00,48.0,48.0,30.41,WSW,247,5.8,5.8,100,0.00,CLR,,0.00,0.0,WeatherDisplay:10.37,2013-01-06 04:13:00,
2013-01-06 04:18:00,48.0,48.0,30.41,SW,234,5.8,5.8,100,0.00,CLR,,0.00,0.0,WeatherDisplay:10.37,2013-01-06 04:18:00,
2013-01-06 04:23:00,47.9,47.9,30.41,WSW,250,4.6,4.6,100,0.00,CLR,,0.00,0.0,WeatherDisplay:10.37,2013-01-06 04:23:00,
2013-01-06 04:28:00,47.9,47.9,30.41,SW,234,3.5,3.5,100,0.00,CLR,,0.00,0.0,WeatherDisplay:10.37,2013-01-06 04:28:00,
2013-01-06 04:34:00,47.9,47.9,30.41,North,0,2.3,2.3,100,0.00,CLR,,0.00,0.0,WeatherDisplay:10.37,2013-01-06 04:34:00,
2013-01-06 04:39:00,47.9,47.9,30.41,NNW,346,3.5,3.5,100,0.00,CLR,,0.00,0.0,WeatherDisplay:10.37,2013-01-06 04:39:00,
2013-01-06 04:44:00,47.7,47.7,30.41,NNW,340,2.3,2.3,100,0.00,CLR,,0.00,0.0,WeatherDisplay:10.37,2013-01-06 04:44:00,
2013-01-06 04:49:00,47.7,47.7,30.41,SW,230,2.3,2.3,100,0.00,CLR,,0.00,0.0,WeatherDisplay:10.37,2013-01-06 04:49:00,
2013-01-06 04:54:00,47.6,47.6,30.41,NNW,330,5.8,5.8,100,0.00,CLR,,0.00,0.0,WeatherDisplay:10.37,2013-01-06 04:54:00,
2013-01-06 04:59:00,47.6,47.6,30.41,North,0,4.6,4.6,100,0.00,CLR,,0.00,0.0,WeatherDisplay:10.37,2013-01-06 04:59:00,
2013-01-06 05:00:00,47.6,47.6,30.41,NW,326,4.6,4.6,100,0.00,CLR,,0.00,0.0,WeatherDisplay:10.37,2013-01-06 05:00:00,
2013-01-06 05:02:00,47.6,47.6,30.40,NNW,347,2.0,2.0,100,0.00,CLR,,0.00,0.0,WeatherDisplay:10.37,2013-01-06 05:02:00,
2013-01-06 05:04:00,47.6,47.6,30.40,SW,223,5.0,5.0,100,0.00,CLR,,0.00,0.0,WeatherDisplay:10.37,2013-01-06 05:04:00,
2013-01-06 05:05:00,47.6,47.6,30.40,North,357,4.6,4.6,100,0.00,CLR,,0.00,0.0,WeatherDisplay:10.37,2013-01-06 05:05:00,
2013-01-06 05:10:00,47.4,47.4,30.40,SSW,209,3.5,3.5,100,0.00,CLR,,0.00,0.0,WeatherDisplay:10.37,2013-01-06 05:10:00,
2013-01-06 05:15:00,47.4,47.4,30.39,WNW,283,0.0,6.0,100,0.00,CLR,,0.00,0.0,WeatherDisplay:10.37,2013-01-06 05:15:00,
2013-01-06 05:20:00,47.4,47.4,30.40,NNW,336,4.6,4.6,100,0.00,CLR,,0.00,0.0,WeatherDisplay:10.37,2013-01-06 05:20:00,
2013-01-06 05:25:00,47.3,47.3,30.39,NW,312,6.9,6.9,100,0.00,CLR,,0.00,0.0,WeatherDisplay:10.37,2013-01-06 05:25:00,
2013-01-06 05:30:00,47.3,47.3,30.39,NW,322,3.5,3.5,100,0.00,CLR,,0.00,0.0,WeatherDisplay:10.37,2013-01-06 05:30:00,
2013-01-06 05:36:00,47.1,47.1,30.39,NW,326,2.0,2.0,100,0.00,CLR,,0.00,0.0,WeatherDisplay:10.37,2013-01-06 05:36:00,
2013-01-06 05:41:00,47.0,47.0,30.39,NNW,328,4.6,4.6,100,0.00,CLR,,0.00,0.0,WeatherDisplay:10.37,2013-01-06 05:41:00,
2013-01-06 05:46:00,46.8,46.8,30.39,South,186,3.5,3.5,100,0.00,CLR,,0.00,0.0,WeatherDisplay:10.37,2013-01-06 05:46:00,
2013-01-06 05:52:00,46.7,46.7,30.38,SSW,195,3.5,3.5,100,0.00,CLR,,0.00,0.0,WeatherDisplay:10.37,2013-01-06 05:52:00,
2013-01-06 05:57:00,46.5,46.5,30.38,North,0,1.2,1.2,100,0.00,CLR,,0.00,0.0,WeatherDisplay:10.37,2013-01-06 05:57:00,
2013-01-06 06:02:00,46.4,46.4,30.38,North,0,2.3,2.3,100,0.00,,,0.00,0.0,WeatherDisplay:10.37,2013-01-06 06:02:00,
2013-01-06 06:07:00,46.4,46.4,30.38,SSW,195,2.3,2.3,100,0.00,,,0.00,0.0,WeatherDisplay:10.37,2013-01-06 06:07:00,
2013-01-06 06:12:00,46.2,46.2,30.38,North,350,3.5,3.5,100,0.01,RA,,0.01,0.0,WeatherDisplay:10.37,2013-01-06 06:12:00,
2013-01-06 06:17:00,46.1,46.1,30.38,NNW,329,2.3,2.3,100,0.01,RA,,0.01,0.0,WeatherDisplay:10.37,2013-01-06 06:17:00,
2013-01-06 06:22:00,46.1,46.1,30.38,WSW,257,2.3,2.3,100,0.01,CLR,,0.01,0.0,WeatherDisplay:10.37,2013-01-06 06:22:00,
2013-01-06 06:27:00,46.1,46.1,30.38,SW,229,0.0,0.0,100,0.01,CLR,,0.01,0.0,WeatherDisplay:10.37,2013-01-06 06:27:00,
2013-01-06 06:32:00,46.0,46.0,30.38,WSW,256,0.0,0.0,100,0.01,CLR,,0.01,0.0,WeatherDisplay:10.37,2013-01-06 06:32:00,
2013-01-06 06:38:00,45.7,45.7,30.37,WSW,251,0.0,0.0,100,0.01,CLR,,0.01,0.0,WeatherDisplay:10.37,2013-01-06 06:38:00,
2013-01-06 06:43:00,45.7,45.7,30.37,SW,236,0.0,0.0,100,0.01,CLR,,0.01,0.0,WeatherDisplay:10.37,2013-01-06 06:43:00,
2013-01-06 06:49:00,45.5,45.5,30.36,WNW,299,2.3,2.3,100,0.01,CLR,,0.01,0.0,WeatherDisplay:10.37,2013-01-06 06:49:00,
2013-01-06 06:54:00,45.5,45.5,30.36,WNW,302,0.0,0.0,100,0.01,CLR,,0.01,0.0,WeatherDisplay:10.37,2013-01-06 06:54:00,
2013-01-06 06:59:00,45.4,45.4,30.37,WNW,292,0.0,0.0,100,0.01,CLR,,0.01,0.0,WeatherDisplay:10.37,2013-01-06 06:59:00,
2013-01-06 07:04:00,45.4,45.4,30.36,NW,304,2.3,2.3,100,0.01,CLR,,0.01,0.0,WeatherDisplay:10.37,2013-01-06 07:04:00,
2013-01-06 07:09:00,45.1,45.1,30.36,WNW,291,1.0,0.0,100,0.00,CLR,,0.01,0.0,WeatherDisplay:10.37,2013-01-06 07:09:00,
2013-01-06 07:14:00,44.9,44.9,30.36,WNW,296,1.0,1.0,100,0.00,CLR,,0.01,0.0,WeatherDisplay:10.37,2013-01-06 07:14:00,
2013-01-06 07:20:00,44.8,44.8,30.36,WNW,299,0.0,0.0,100,0.00,CLR,,0.01,0.0,WeatherDisplay:10.37,2013-01-06 07:20:00,
2013-01-06 07:25:00,44.8,44.8,30.35,SE,130,3.5,3.5,100,0.00,CLR,,0.01,0.0,WeatherDisplay:10.37,2013-01-06 07:25:00,
2013-01-06 07:30:00,44.6,44.6,30.35,ESE,119,2.3,2.3,100,0.00,CLR,,0.01,0.0,WeatherDisplay:10.37,2013-01-06 07:30:00,
2013-01-06 07:35:00,44.5,44.5,30.35,SE,127,0.0,0.0,100,0.00,CLR,,0.01,0.0,WeatherDisplay:10.37,2013-01-06 07:35:00,
2013-01-06 07:40:00,44.5,44.5,30.34,ESE,116,0.0,0.0,100,0.00,CLR,,0.01,0.0,WeatherDisplay:10.37,2013-01-06 07:40:00,
2013-01-06 07:45:00,44.3,44.3,30.34,ESE,117,1.2,1.2,100,0.00,CLR,,0.01,0.0,WeatherDisplay:10.37,2013-01-06 07:45:00,
2013-01-06 07:50:00,44.3,44.3,30.35,SE,124,1.0,0.0,100,0.00,CLR,,0.01,0.0,WeatherDisplay:10.37,2013-01-06 07:50:00,
2013-01-06 07:55:00,44.3,44.3,30.35,ESE,123,0.0,0.0,100,0.00,CLR,,0.01,0.0,WeatherDisplay:10.37,2013-01-06 07:55:00,
2013-01-06 08:01:00,44.3,44.3,30.35,ESE,121,0.0,0.0,100,0.00,CLR,,0.01,0.0,WeatherDisplay:10.37,2013-01-06 08:01:00,
2013-01-06 08:06:00,44.2,44.2,30.35,SE,124,0.0,0.0,100,0.00,CLR,,0.01,0.0,WeatherDisplay:10.37,2013-01-06 08:06:00,
2013-01-06 08:11:00,44.1,44.1,30.35,ESE,112,0.0,0.0,100,0.00,CLR,,0.01,0.0,WeatherDisplay:10.37,2013-01-06 08:11:00,
2013-01-06 08:16:00,44.1,44.1,30.34,ESE,121,0.0,0.0,100,0.00,OVC,,0.01,0.0,WeatherDisplay:10.37,2013-01-06 08:16:00,
2013-01-06 08:21:00,43.9,43.9,30.34,ESE,116,0.0,0.0,100,0.00,OVC,,0.01,0.0,WeatherDisplay:10.37,2013-01-06 08:21:00,
2013-01-06 08:26:00,43.8,43.8,30.34,ESE,121,0.0,0.0,100,0.00,OVC,,0.01,0.0,WeatherDisplay:10.37,2013-01-06 08:26:00,
2013-01-06 08:31:00,43.8,43.8,30.34,ESE,116,0.0,0.0,100,0.00,OVC,,0.01,5.0,WeatherDisplay:10.37,2013-01-06 08:31:00,
2013-01-06 08:36:00,43.6,43.6,30.33,ESE,123,0.0,0.0,100,0.00,OVC,,0.01,0.0,WeatherDisplay:10.37,2013-01-06 08:36:00,
2013-01-06 08:42:00,43.5,43.5,30.33,ESE,114,1.2,1.2,100,0.00,OVC,,0.01,0.0,WeatherDisplay:10.37,2013-01-06 08:42:00,
2013-01-06 08:47:00,43.3,43.3,30.34,ESE,123,0.0,0.0,100,0.00,OVC,,0.01,5.0,WeatherDisplay:10.37,2013-01-06 08:47:00,
2013-01-06 08:52:00,43.2,43.2,30.34,ESE,119,0.0,0.0,100,0.00,OVC,,0.01,5.0,WeatherDisplay:10.37,2013-01-06 08:52:00,
2013-01-06 08:57:00,43.1,43.1,30.34,SE,124,0.0,0.0,100,0.00,OVC,,0.01,7.0,WeatherDisplay:10.37,2013-01-06 08:57:00,
2013-01-06 09:03:00,43.1,43.1,30.34,ESE,120,3.5,3.5,100,0.00,CLR,,0.01,7.0,WeatherDisplay:10.37,2013-01-06 09:03:00,
2013-01-06 09:08:00,43.1,43.1,30.34,SE,126,0.0,0.0,100,0.00,SCT,,0.01,9.0,WeatherDisplay:10.37,2013-01-06 09:08:00,
2013-01-06 09:13:00,43.2,43.2,30.34,South,172,3.5,3.5,100,0.00,SCT,,0.01,14.0,WeatherDisplay:10.37,2013-01-06 09:13:00,
2013-01-06 09:18:00,43.8,43.8,30.34,South,189,2.3,2.3,100,0.00,CLR,,0.01,26.0,WeatherDisplay:10.37,2013-01-06 09:18:00,
2013-01-06 09:23:00,44.2,44.2,30.34,NNW,329,4.6,4.6,100,0.00,CLR,,0.01,32.0,WeatherDisplay:10.37,2013-01-06 09:23:00,
2013-01-06 09:29:00,44.8,44.8,30.35,North,0,3.5,3.5,100,0.00,FEW,,0.01,30.0,WeatherDisplay:10.37,2013-01-06 09:29:00,
2013-01-06 09:34:00,45.4,45.4,30.34,South,189,3.5,3.5,100,0.00,SCT,,0.01,28.0,WeatherDisplay:10.37,2013-01-06 09:34:00,
2013-01-06 09:39:00,45.8,45.8,30.34,NNW,337,2.3,2.3,100,0.00,CLR,,0.01,49.0,WeatherDisplay:10.37,2013-01-06 09:39:00,
2013-01-06 09:44:00,46.1,46.1,30.33,NNW,339,2.3,2.3,100,0.00,CLR,,0.01,70.0,WeatherDisplay:10.37,2013-01-06 09:44:00,
2013-01-06 09:49:00,46.4,46.4,30.33,South,188,5.8,5.8,100,0.00,CLR,,0.01,65.0,WeatherDisplay:10.37,2013-01-06 09:49:00,
2013-01-06 09:54:00,46.5,46.5,30.32,South,174,6.9,6.9,100,0.00,CLR,,0.01,72.0,WeatherDisplay:10.37,2013-01-06 09:54:00,
2013-01-06 10:00:00,46.8,46.8,30.32,North,354,6.9,6.9,100,0.00,CLR,,0.01,95.0,WeatherDisplay:10.37,2013-01-06 10:00:00,
2013-01-06 10:05:00,47.0,47.0,30.32,SSE,155,4.6,4.6,100,0.00,SCT,,0.01,56.0,WeatherDisplay:10.37,2013-01-06 10:05:00,
2013-01-06 10:10:00,47.1,47.1,30.33,NNW,340,4.6,4.6,100,0.00,SCT,,0.01,44.0,WeatherDisplay:10.37,2013-01-06 10:10:00,
2013-01-06 10:15:00,47.4,47.4,30.32,North,352,3.5,3.5,100,0.00,SCT,,0.01,46.0,WeatherDisplay:10.37,2013-01-06 10:15:00,
2013-01-06 10:21:00,47.9,47.9,30.32,SSW,192,5.8,5.8,100,0.00,BKN,,0.01,48.0,WeatherDisplay:10.37,2013-01-06 10:21:00,
2013-01-06 10:26:00,48.2,48.2,30.32,SW,217,9.2,9.2,100,0.00,BKN,,0.01,46.0,WeatherDisplay:10.37,2013-01-06 10:26:00,
2013-01-06 10:31:00,48.3,48.3,30.32,NW,326,8.1,8.1,100,0.00,BKN,,0.01,44.0,WeatherDisplay:10.37,2013-01-06 10:31:00,
2013-01-06 10:36:00,48.5,48.5,30.32,North,0,5.8,5.8,100,0.00,BKN,,0.01,44.0,WeatherDisplay:10.37,2013-01-06 10:36:00,
2013-01-06 10:41:00,48.6,48.6,30.32,North,0,6.9,6.9,100,0.00,BKN,,0.01,55.0,WeatherDisplay:10.37,2013-01-06 10:41:00,
2013-01-06 10:46:00,48.6,48.6,30.32,SSW,193,6.9,6.9,100,0.00,SCT,,0.01,62.0,WeatherDisplay:10.37,2013-01-06 10:46:00,
2013-01-06 10:51:00,48.8,48.8,30.31,SSW,192,6.9,6.9,100,0.00,BKN,,0.01,51.0,WeatherDisplay:10.37,2013-01-06 10:51:00,
2013-01-06 10:57:00,49.1,49.1,30.31,South,179,8.1,8.1,100,0.00,OVC,,0.01,42.0,WeatherDisplay:10.37,2013-01-06 10:57:00,
2013-01-06 11:02:00,49.2,49.2,30.30,North,0,10.4,10.4,100,0.00,OVC,,0.01,44.0,WeatherDisplay:10.37,2013-01-06 11:02:00,
2013-01-06 11:07:00,49.4,49.4,30.30,NNW,346,9.2,9.2,100,0.00,OVC,,0.01,40.0,WeatherDisplay:10.37,2013-01-06 11:07:00,
2013-01-06 11:12:00,49.4,49.4,30.29,NNW,336,13.8,13.8,100,0.00,OVC,,0.01,40.0,WeatherDisplay:10.37,2013-01-06 11:12:00,
2013-01-06 11:17:00,49.5,49.5,30.29,SSW,210,11.5,11.5,100,0.00,OVC,,0.01,40.0,WeatherDisplay:10.37,2013-01-06 11:17:00,
2013-01-06 11:22:00,49.6,49.6,30.29,North,0,13.8,13.8,100,0.00,OVC,,0.01,40.0,WeatherDisplay:10.37,2013-01-06 11:22:00,
2013-01-06 11:27:00,49.6,49.6,30.28,SW,234,5.8,5.8,100,0.00,BKN,,0.01,55.0,WeatherDisplay:10.37,2013-01-06 11:27:00,
2013-01-06 11:32:00,49.8,49.8,30.28,NNW,333,8.1,8.1,100,0.00,OVC,,0.01,48.0,WeatherDisplay:10.37,2013-01-06 11:32:00,
2013-01-06 11:37:00,49.8,49.8,30.28,NNW,329,11.5,11.5,100,0.00,OVC,,0.01,40.0,WeatherDisplay:10.37,2013-01-06 11:37:00,
2013-01-06 11:43:00,49.8,49.8,30.28,North,0,13.8,13.8,100,0.00,OVC,,0.01,42.0,WeatherDisplay:10.37,2013-01-06 11:43:00,
2013-01-06 11:48:00,49.8,49.8,30.28,North,349,11.5,11.5,100,0.00,OVC,,0.01,30.0,WeatherDisplay:10.37,2013-01-06 11:48:00,
2013-01-06 11:53:00,49.9,49.9,30.27,SW,222,9.2,9.2,100,0.00,OVC,,0.01,35.0,WeatherDisplay:10.37,2013-01-06 11:53:00,
2013-01-06 11:58:00,49.9,49.9,30.27,North,353,8.0,8.0,100,0.00,OVC,,0.01,35.0,WeatherDisplay:10.37,2013-01-06 11:58:00,
2013-01-06 12:03:00,49.9,49.9,30.26,SSW,206,8.0,8.0,100,0.00,OVC,,0.01,35.0,WeatherDisplay:10.37,2013-01-06 12:03:00,
2013-01-06 12:08:00,50.1,50.1,30.26,SSE,164,11.5,11.5,100,0.00,OVC,,0.01,42.0,WeatherDisplay:10.37,2013-01-06 12:08:00,
2013-01-06 12:13:00,50.1,50.1,30.26,North,357,11.5,11.5,100,0.00,OVC,,0.01,40.0,WeatherDisplay:10.37,2013-01-06 12:13:00,
2013-01-06 12:18:00,50.1,50.1,30.26,NNW,339,11.5,11.5,100,0.00,BKN,,0.01,65.0,WeatherDisplay:10.37,2013-01-06 12:18:00,
2013-01-06 12:23:00,50.1,50.1,30.25,NNW,332,12.7,12.7,100,0.00,BKN,,0.01,77.0,WeatherDisplay:10.37,2013-01-06 12:23:00,
2013-01-06 12:28:00,50.2,50.2,30.25,NNW,332,5.8,5.8,100,0.00,SCT,,0.01,83.0,WeatherDisplay:10.37,2013-01-06 12:28:00,
2013-01-06 12:34:00,50.2,50.2,30.25,North,0,16.1,16.1,100,0.00,SCT,,0.01,84.0,WeatherDisplay:10.37,2013-01-06 12:34:00,
2013-01-06 12:39:00,50.4,50.4,30.25,NNW,346,11.5,11.5,100,0.00,SCT,,0.01,95.0,WeatherDisplay:10.37,2013-01-06 12:39:00,
2013-01-06 12:44:00,50.4,50.4,30.25,NNW,336,12.7,12.7,100,0.00,BKN,,0.01,79.0,WeatherDisplay:10.37,2013-01-06 12:44:00,
2013-01-06 12:49:00,50.5,50.5,30.25,NNW,344,17.3,17.3,100,0.00,BKN,,0.01,70.0,WeatherDisplay:10.37,2013-01-06 12:49:00,
2013-01-06 12:54:00,50.7,50.7,30.25,NNW,329,12.7,12.7,100,0.00,BKN,,0.01,70.0,WeatherDisplay:10.37,2013-01-06 12:54:00,
2013-01-06 13:00:00,50.7,50.7,30.25,NNW,333,11.5,11.5,100,0.00,BKN,,0.01,81.0,WeatherDisplay:10.37,2013-01-06 13:00:00,
2013-01-06 13:05:00,50.8,50.8,30.25,NNW,339,10.4,10.4,100,0.00,BKN,,0.01,72.0,WeatherDisplay:10.37,2013-01-06 13:05:00,
2013-01-06 13:10:00,50.8,50.8,30.25,SW,230,12.7,12.7,100,0.00,BKN,,0.01,60.0,WeatherDisplay:10.37,2013-01-06 13:10:00,
2013-01-06 13:15:00,51.0,51.0,30.25,NNW,332,10.4,10.4,100,0.00,BKN,,0.01,74.0,WeatherDisplay:10.37,2013-01-06 13:15:00,
2013-01-06 13:20:00,51.0,51.0,30.25,SW,232,6.9,6.9,100,0.00,SCT,,0.01,93.0,WeatherDisplay:10.37,2013-01-06 13:20:00,
2013-01-06 13:26:00,51.1,51.1,30.24,WNW,298,4.6,4.6,100,0.00,FEW,,0.01,104.0,WeatherDisplay:10.37,2013-01-06 13:26:00,
2013-01-06 13:31:00,51.1,51.1,30.24,SSE,155,10.4,10.4,100,0.00,SCT,,0.01,90.0,WeatherDisplay:10.37,2013-01-06 13:31:00,
2013-01-06 13:36:00,51.1,51.1,30.24,SSW,212,11.5,11.5,100,0.00,BKN,,0.01,65.0,WeatherDisplay:10.37,2013-01-06 13:36:00,
2013-01-06 13:41:00,51.1,51.1,30.23,South,184,13.8,13.8,100,0.00,BKN,,0.01,56.0,WeatherDisplay:10.37,2013-01-06 13:41:00,
2013-01-06 13:46:00,51.0,51.0,30.23,SSW,203,12.0,12.0,100,0.00,BKN,,0.01,55.0,WeatherDisplay:10.37,2013-01-06 13:46:00,
2013-01-06 13:51:00,50.8,50.8,30.23,NW,326,11.5,11.5,100,0.00,BKN,,0.01,58.0,WeatherDisplay:10.37,2013-01-06 13:51:00,
2013-01-06 13:56:00,50.7,50.7,30.23,NNW,329,5.8,5.8,100,0.00,SCT,,0.01,79.0,WeatherDisplay:10.37,2013-01-06 13:56:00,
2013-01-06 14:02:00,50.7,50.7,30.23,NW,326,12.7,12.7,100,0.00,SCT,,0.01,74.0,WeatherDisplay:10.37,2013-01-06 14:02:00,
2013-01-06 14:07:00,50.7,50.7,30.23,North,0,10.4,10.4,100,0.00,SCT,,0.01,58.0,WeatherDisplay:10.37,2013-01-06 14:07:00,
2013-01-06 14:12:00,50.5,50.5,30.23,SW,229,11.5,11.5,100,0.00,BKN,,0.01,53.0,WeatherDisplay:10.37,2013-01-06 14:12:00,
2013-01-06 14:17:00,50.5,50.5,30.23,SW,234,13.8,13.8,100,0.00,BKN,,0.01,42.0,WeatherDisplay:10.37,2013-01-06 14:17:00,
2013-01-06 14:22:00,50.5,50.5,30.23,SSE,154,11.5,11.5,100,0.00,BKN,,0.01,46.0,WeatherDisplay:10.37,2013-01-06 14:22:00,
2013-01-06 14:28:00,50.5,50.5,30.23,WSW,246,11.5,11.5,100,0.00,BKN,,0.01,42.0,WeatherDisplay:10.37,2013-01-06 14:28:00,
2013-01-06 14:33:00,50.5,50.5,30.23,North,359,10.4,10.4,100,0.00,BKN,,0.01,35.0,WeatherDisplay:10.37,2013-01-06 14:33:00,
2013-01-06 14:38:00,50.4,50.4,30.23,South,181,6.9,6.9,100,0.00,BKN,,0.01,33.0,WeatherDisplay:10.37,2013-01-06 14:38:00,
2013-01-06 14:43:00,50.4,50.4,30.22,NNW,344,10.4,10.4,100,0.00,BKN,,0.01,33.0,WeatherDisplay:10.37,2013-01-06 14:43:00,
2013-01-06 14:49:00,50.4,50.4,30.22,SE,141,8.1,8.1,100,0.00,BKN,,0.01,35.0,WeatherDisplay:10.37,2013-01-06 14:49:00,
2013-01-06 14:54:00,50.4,50.4,30.22,NNW,330,13.8,13.8,100,0.00,FEW,,0.01,48.0,WeatherDisplay:10.37,2013-01-06 14:54:00,
2013-01-06 14:59:00,50.4,50.4,30.22,NW,325,10.4,10.4,100,0.00,SCT,,0.01,40.0,WeatherDisplay:10.37,2013-01-06 14:59:00,
2013-01-06 15:04:00,50.4,50.4,30.22,SW,220,10.4,10.4,100,0.00,SCT,,0.01,39.0,WeatherDisplay:10.37,2013-01-06 15:04:00,
2013-01-06 15:10:00,50.4,50.4,30.22,North,0,8.1,8.1,100,0.00,SCT,,0.01,35.0,WeatherDisplay:10.37,2013-01-06 15:10:00,
2013-01-06 15:15:00,50.4,50.4,30.22,NNW,342,6.9,6.9,100,0.00,SCT,,0.01,19.0,WeatherDisplay:10.37,2013-01-06 15:15:00,
2013-01-06 15:20:00,50.2,50.2,30.22,North,0,10.4,10.4,100,0.00,BKN,,0.01,18.0,WeatherDisplay:10.37,2013-01-06 15:20:00,
2013-01-06 15:25:00,50.2,50.2,30.22,North,0,8.1,8.1,100,0.00,BKN,,0.01,14.0,WeatherDisplay:10.37,2013-01-06 15:25:00,
2013-01-06 15:30:00,50.2,50.2,30.22,WSW,239,5.8,5.8,100,0.00,BKN,,0.01,11.0,WeatherDisplay:10.37,2013-01-06 15:30:00,
2013-01-06 15:35:00,50.1,50.1,30.22,WSW,241,8.1,8.1,100,0.00,BKN,,0.01,9.0,WeatherDisplay:10.37,2013-01-06 15:35:00,
2013-01-06 15:40:00,50.1,50.1,30.22,SSW,192,8.1,8.1,100,0.00,BKN,,0.01,7.0,WeatherDisplay:10.37,2013-01-06 15:40:00,
2013-01-06 15:46:00,49.9,49.9,30.22,North,0,13.8,13.8,100,0.00,CLR,,0.01,7.0,WeatherDisplay:10.37,2013-01-06 15:46:00,
2013-01-06 15:51:00,49.9,49.9,30.22,North,353,5.8,5.8,100,0.00,OVC,,0.01,5.0,WeatherDisplay:10.37,2013-01-06 15:51:00,
2013-01-06 15:56:00,49.8,49.8,30.22,South,171,10.4,10.4,100,0.00,OVC,,0.01,0.0,WeatherDisplay:10.37,2013-01-06 15:56:00,
2013-01-06 16:01:00,49.8,49.8,30.22,North,0,8.0,8.0,100,0.00,OVC,,0.01,0.0,WeatherDisplay:10.37,2013-01-06 16:01:00,
2013-01-06 16:06:00,49.6,49.6,30.22,NNW,344,2.3,2.3,100,0.01,RA,,0.02,0.0,WeatherDisplay:10.37,2013-01-06 16:06:00,
2013-01-06 16:11:00,49.6,49.6,30.22,WNW,291,6.0,6.0,100,0.01,RA,,0.02,0.0,WeatherDisplay:10.37,2013-01-06 16:11:00,
2013-01-06 16:17:00,49.5,49.5,30.23,SW,236,10.4,10.4,100,0.01,OVC,,0.02,0.0,WeatherDisplay:10.37,2013-01-06 16:17:00,
2013-01-06 16:22:00,49.5,49.5,30.23,SSW,212,4.6,4.6,100,0.02,RA,,0.03,0.0,WeatherDisplay:10.37,2013-01-06 16:22:00,
2013-01-06 16:27:00,49.4,49.4,30.22,NNW,332,4.6,4.6,100,0.03,RA,,0.04,0.0,WeatherDisplay:10.37,2013-01-06 16:27:00,
2013-01-06 16:32:00,49.2,49.2,30.22,NNW,332,5.8,5.8,100,0.04,RA,,0.05,0.0,WeatherDisplay:10.37,2013-01-06 16:32:00,
2013-01-06 16:37:00,49.2,49.2,30.22,NNW,329,4.6,4.6,100,0.05,RA,,0.06,0.0,WeatherDisplay:10.37,2013-01-06 16:37:00,
2013-01-06 16:42:00,49.1,49.1,30.22,NNW,337,4.6,4.6,100,0.05,RA,,0.06,0.0,WeatherDisplay:10.37,2013-01-06 16:42:00,
2013-01-06 16:47:00,49.1,49.1,30.21,WSW,243,4.6,4.6,100,0.05,,,0.07,0.0,WeatherDisplay:10.37,2013-01-06 16:47:00,
2013-01-06 16:52:00,49.1,49.1,30.21,WSW,241,4.6,4.6,100,0.06,RA,,0.07,0.0,WeatherDisplay:10.37,2013-01-06 16:52:00,
2013-01-06 16:58:00,48.9,48.9,30.21,NNW,342,8.1,8.1,100,0.06,RA,,0.07,0.0,WeatherDisplay:10.37,2013-01-06 16:58:00,
2013-01-06 17:03:00,48.9,48.9,30.21,WNW,298,8.1,8.1,100,0.07,RA,,0.08,0.0,WeatherDisplay:10.37,2013-01-06 17:03:00,
2013-01-06 17:08:00,48.9,48.9,30.21,WSW,243,6.9,6.9,100,0.06,RA,,0.08,0.0,WeatherDisplay:10.37,2013-01-06 17:08:00,
2013-01-06 17:13:00,48.9,48.9,30.20,WNW,285,9.2,9.2,100,0.06,,,0.08,0.0,WeatherDisplay:10.37,2013-01-06 17:13:00,
2013-01-06 17:18:00,48.9,48.9,30.20,SW,222,5.8,5.8,100,0.05,CLR,,0.08,0.0,WeatherDisplay:10.37,2013-01-06 17:18:00,
2013-01-06 17:23:00,48.9,48.9,30.20,NW,319,11.5,11.5,100,0.04,CLR,,0.08,0.0,WeatherDisplay:10.37,2013-01-06 17:23:00,
2013-01-06 17:29:00,48.9,48.9,30.20,NNW,346,6.9,6.9,100,0.05,RA,,0.09,0.0,WeatherDisplay:10.37,2013-01-06 17:29:00,
2013-01-06 17:34:00,49.1,49.1,30.20,NW,305,6.9,6.9,100,0.04,,,0.09,0.0,WeatherDisplay:10.37,2013-01-06 17:34:00,
2013-01-06 17:39:00,49.1,49.1,30.20,NW,323,13.0,13.0,100,0.03,CLR,,0.09,0.0,WeatherDisplay:10.37,2013-01-06 17:39:00,
2013-01-06 17:44:00,49.1,49.1,30.20,NNW,343,10.4,10.4,100,0.03,CLR,,0.09,0.0,WeatherDisplay:10.37,2013-01-06 17:44:00,
2013-01-06 17:49:00,49.1,49.1,30.20,North,349,18.4,18.4,100,0.02,CLR,,0.09,0.0,WeatherDisplay:10.37,2013-01-06 17:49:00,
2013-01-06 17:54:00,49.1,49.1,30.19,WNW,282,10.4,10.4,100,0.02,CLR,,0.09,0.0,WeatherDisplay:10.37,2013-01-06 17:54:00,
2013-01-06 17:59:00,49.2,49.2,30.19,SW,223,10.4,10.4,100,0.03,RA,,0.10,0.0,WeatherDisplay:10.37,2013-01-06 17:59:00,
2013-01-06 18:04:00,49.2,49.2,30.19,NW,319,11.5,11.5,100,0.02,RA,,0.10,0.0,WeatherDisplay:10.37,2013-01-06 18:04:00,
2013-01-06 18:09:00,49.2,49.2,30.18,North,357,11.0,11.0,100,0.02,CLR,,0.10,0.0,WeatherDisplay:10.37,2013-01-06 18:09:00,
2013-01-06 18:14:00,49.4,49.4,30.18,WNW,296,11.5,11.5,100,0.02,CLR,,0.10,0.0,WeatherDisplay:10.37,2013-01-06 18:14:00,
2013-01-06 18:20:00,49.4,49.4,30.18,ESE,121,11.5,11.5,100,0.02,CLR,,0.10,0.0,WeatherDisplay:10.37,2013-01-06 18:20:00,
2013-01-06 18:25:00,49.4,49.4,30.19,North,359,12.7,12.7,100,0.01,CLR,,0.10,0.0,WeatherDisplay:10.37,2013-01-06 18:25:00,
2013-01-06 18:30:00,49.5,49.5,30.19,North,0,11.5,11.5,100,0.01,CLR,,0.10,0.0,WeatherDisplay:10.37,2013-01-06 18:30:00,
2013-01-06 18:35:00,49.5,49.5,30.19,WSW,246,4.6,4.6,100,0.01,CLR,,0.10,0.0,WeatherDisplay:10.37,2013-01-06 18:35:00,
2013-01-06 18:40:00,49.6,49.6,30.19,North,0,10.4,10.4,100,0.01,CLR,,0.10,0.0,WeatherDisplay:10.37,2013-01-06 18:40:00,
2013-01-06 18:45:00,49.6,49.6,30.19,South,178,11.5,11.5,100,0.01,CLR,,0.10,0.0,WeatherDisplay:10.37,2013-01-06 18:45:00,
2013-01-06 18:51:00,49.6,49.6,30.20,NW,320,10.4,10.4,100,0.01,CLR,,0.10,0.0,WeatherDisplay:10.37,2013-01-06 18:51:00,
2013-01-06 18:56:00,49.6,49.6,30.20,WSW,243,6.9,6.9,100,0.01,CLR,,0.10,0.0,WeatherDisplay:10.37,2013-01-06 18:56:00,
2013-01-06 19:01:00,49.8,49.8,30.19,North,0,10.4,10.4,100,0.00,CLR,,0.10,0.0,WeatherDisplay:10.37,2013-01-06 19:01:00,
2013-01-06 19:06:00,49.8,49.8,30.19,NNW,332,5.8,5.8,100,0.00,CLR,,0.10,0.0,WeatherDisplay:10.37,2013-01-06 19:06:00,
2013-01-06 19:11:00,49.8,49.8,30.19,North,357,6.9,6.9,100,0.00,CLR,,0.10,0.0,WeatherDisplay:10.37,2013-01-06 19:11:00,
2013-01-06 19:17:00,49.8,49.8,30.19,NNW,346,8.1,8.1,100,0.00,CLR,,0.10,0.0,WeatherDisplay:10.37,2013-01-06 19:17:00,
2013-01-06 19:22:00,49.8,49.8,30.19,NNW,342,8.1,8.1,100,0.00,CLR,,0.10,0.0,WeatherDisplay:10.37,2013-01-06 19:22:00,
2013-01-06 19:27:00,49.8,49.8,30.19,SW,223,6.9,6.9,100,0.00,CLR,,0.10,0.0,WeatherDisplay:10.37,2013-01-06 19:27:00,
2013-01-06 19:32:00,49.9,49.9,30.19,SW,223,8.1,8.1,100,0.00,CLR,,0.10,0.0,WeatherDisplay:10.37,2013-01-06 19:32:00,
2013-01-06 19:37:00,49.9,49.9,30.19,West,270,4.6,4.6,100,0.00,CLR,,0.10,0.0,WeatherDisplay:10.37,2013-01-06 19:37:00,
2013-01-06 19:47:00,49.9,49.9,30.19,NNW,332,6.9,6.9,100,0.00,CLR,,0.10,0.0,WeatherDisplay:10.37,2013-01-06 19:47:00,
2013-01-06 19:53:00,49.9,49.9,30.20,SSW,205,5.8,5.8,100,0.00,CLR,,0.10,0.0,WeatherDisplay:10.37,2013-01-06 19:53:00,
2013-01-06 19:58:00,49.9,49.9,30.19,WNW,287,4.0,4.0,100,0.00,CLR,,0.10,0.0,WeatherDisplay:10.37,2013-01-06 19:58:00,
2013-01-06 20:04:00,49.9,49.9,30.19,North,357,8.1,8.1,100,0.00,CLR,,0.10,0.0,WeatherDisplay:10.37,2013-01-06 20:04:00,
2013-01-06 20:09:00,49.9,49.9,30.19,North,357,11.5,11.5,100,0.00,CLR,,0.10,0.0,WeatherDisplay:10.37,2013-01-06 20:09:00,
2013-01-06 20:12:00,49.9,49.9,30.19,SW,224,5.8,5.8,100,0.00,CLR,,0.10,0.0,WeatherDisplay:10.37,2013-01-06 20:12:00,
2013-01-06 20:13:00,49.9,49.9,30.19,North,0,11.5,11.5,100,0.00,CLR,,0.10,0.0,WeatherDisplay:10.37,2013-01-06 20:13:00,
2013-01-06 20:18:00,49.9,49.9,30.19,NNW,340,11.5,11.5,100,0.00,CLR,,0.10,0.0,WeatherDisplay:10.37,2013-01-06 20:18:00,
2013-01-06 20:23:00,49.9,49.9,30.19,NW,320,10.4,10.4,100,0.00,CLR,,0.10,0.0,WeatherDisplay:10.37,2013-01-06 20:23:00,
2013-01-06 20:29:00,49.9,49.9,30.19,North,0,9.2,9.2,100,0.00,CLR,,0.10,0.0,WeatherDisplay:10.37,2013-01-06 20:29:00,
2013-01-06 20:34:00,49.9,49.9,30.19,NNW,340,11.5,11.5,100,0.00,CLR,,0.10,0.0,WeatherDisplay:10.37,2013-01-06 20:34:00,
2013-01-06 20:39:00,49.9,49.9,30.19,North,353,10.4,10.4,100,0.00,CLR,,0.10,0.0,WeatherDisplay:10.37,2013-01-06 20:39:00,
2013-01-06 20:44:00,49.9,49.9,30.19,North,354,11.5,11.5,100,0.00,CLR,,0.10,0.0,WeatherDisplay:10.37,2013-01-06 20:44:00,
2013-01-06 20:49:00,49.9,49.9,30.19,NW,322,11.5,11.5,100,0.00,CLR,,0.10,0.0,WeatherDisplay:10.37,2013-01-06 20:49:00,
2013-01-06 20:55:00,49.9,49.9,30.19,NNW,332,10.4,10.4,100,0.00,CLR,,0.10,0.0,WeatherDisplay:10.37,2013-01-06 20:55:00,
2013-01-06 21:00:00,49.9,49.9,30.19,North,357,8.1,8.1,100,0.00,CLR,,0.10,0.0,WeatherDisplay:10.37,2013-01-06 21:00:00,
2013-01-06 21:02:00,49.9,49.9,30.19,North,356,13.0,13.0,100,0.00,CLR,,0.10,0.0,WeatherDisplay:10.37,2013-01-06 21:02:00,
2013-01-06 21:07:00,49.9,49.9,30.19,NW,325,10.4,10.4,100,0.00,CLR,,0.10,0.0,WeatherDisplay:10.37,2013-01-06 21:07:00,
2013-01-06 21:12:00,49.8,49.8,30.19,NNW,330,10.4,10.4,100,0.00,CLR,,0.10,0.0,WeatherDisplay:10.37,2013-01-06 21:12:00,
2013-01-06 21:17:00,49.8,49.8,30.19,North,359,9.2,9.2,100,0.00,CLR,,0.10,0.0,WeatherDisplay:10.37,2013-01-06 21:17:00,
2013-01-06 21:22:00,49.8,49.8,30.18,NNW,328,11.5,11.5,100,0.01,RA,,0.11,0.0,WeatherDisplay:10.37,2013-01-06 21:22:00,
2013-01-06 21:28:00,49.8,49.8,30.18,NNW,332,16.1,16.1,100,0.01,RA,,0.11,0.0,WeatherDisplay:10.37,2013-01-06 21:28:00,
2013-01-06 21:33:00,49.8,49.8,30.18,West,277,11.5,11.5,100,0.01,CLR,,0.11,0.0,WeatherDisplay:10.37,2013-01-06 21:33:00,
2013-01-06 21:38:00,49.8,49.8,30.18,NNW,337,11.5,11.5,100,0.01,CLR,,0.11,0.0,WeatherDisplay:10.37,2013-01-06 21:38:00,
2013-01-06 21:43:00,49.8,49.8,30.18,SSW,212,8.1,8.1,100,0.01,CLR,,0.11,0.0,WeatherDisplay:10.37,2013-01-06 21:43:00,
2013-01-06 21:48:00,49.8,49.8,30.18,NNW,337,10.4,10.4,100,0.01,CLR,,0.11,0.0,WeatherDisplay:10.37,2013-01-06 21:48:00,
2013-01-06 21:53:00,49.8,49.8,30.18,NW,320,8.1,8.1,100,0.01,CLR,,0.11,0.0,WeatherDisplay:10.37,2013-01-06 21:53:00,
2013-01-06 21:59:00,49.9,49.9,30.18,North,359,9.2,9.2,100,0.01,CLR,,0.11,0.0,WeatherDisplay:10.37,2013-01-06 21:59:00,
2013-01-06 22:04:00,49.9,49.9,30.18,North,357,10.4,10.4,100,0.01,CLR,,0.11,0.0,WeatherDisplay:10.37,2013-01-06 22:04:00,
2013-01-06 22:09:00,49.9,49.9,30.18,NNW,329,10.4,10.4,100,0.01,CLR,,0.11,0.0,WeatherDisplay:10.37,2013-01-06 22:09:00,
2013-01-06 22:14:00,49.9,49.9,30.18,NW,326,6.9,6.9,100,0.01,CLR,,0.11,0.0,WeatherDisplay:10.37,2013-01-06 22:14:00,
2013-01-06 22:19:00,49.9,49.9,30.18,SW,219,11.5,11.5,100,0.01,CLR,,0.11,0.0,WeatherDisplay:10.37,2013-01-06 22:19:00,
2013-01-06 22:25:00,49.9,49.9,30.18,South,176,8.1,8.1,100,0.00,CLR,,0.11,0.0,WeatherDisplay:10.37,2013-01-06 22:25:00,
2013-01-06 22:30:00,49.9,49.9,30.18,NNW,335,10.4,10.4,100,0.00,CLR,,0.11,0.0,WeatherDisplay:10.37,2013-01-06 22:30:00,
2013-01-06 22:35:00,49.9,49.9,30.18,NNW,346,11.5,11.5,100,0.00,CLR,,0.11,0.0,WeatherDisplay:10.37,2013-01-06 22:35:00,
2013-01-06 22:40:00,49.9,49.9,30.18,NW,323,6.9,6.9,100,0.01,RA,,0.12,0.0,WeatherDisplay:10.37,2013-01-06 22:40:00,
2013-01-06 22:45:00,49.9,49.9,30.18,NW,325,6.0,12.0,100,0.00,RA,,0.12,0.0,WeatherDisplay:10.37,2013-01-06 22:45:00,
2013-01-06 22:50:00,49.9,49.9,30.18,NW,318,8.1,8.1,100,0.01,CLR,,0.12,0.0,WeatherDisplay:10.37,2013-01-06 22:50:00,
2013-01-06 22:55:00,50.1,50.1,30.18,NW,320,11.5,11.5,100,0.01,CLR,,0.12,0.0,WeatherDisplay:10.37,2013-01-06 22:55:00,
2013-01-06 23:00:00,50.0,50.0,30.18,NW,311,3.0,16.0,100,0.00,CLR,,0.12,0.0,WeatherDisplay:10.37,2013-01-06 23:00:00,
2013-01-06 23:05:00,50.1,50.1,30.18,SE,138,6.9,6.9,100,0.01,CLR,,0.12,0.0,WeatherDisplay:10.37,2013-01-06 23:05:00,
2013-01-06 23:10:00,50.1,50.1,30.18,North,0,8.1,8.1,100,0.01,CLR,,0.12,0.0,WeatherDisplay:10.37,2013-01-06 23:10:00,
2013-01-06 23:16:00,50.1,50.1,30.18,North,356,12.7,12.7,100,0.01,CLR,,0.12,0.0,WeatherDisplay:10.37,2013-01-06 23:16:00,
2013-01-06 23:21:00,50.1,50.1,30.18,WSW,239,5.8,5.8,100,0.01,CLR,,0.12,0.0,WeatherDisplay:10.37,2013-01-06 23:21:00,
2013-01-06 23:26:00,50.1,50.1,30.18,North,0,6.9,6.9,100,0.02,RA,,0.13,0.0,WeatherDisplay:10.37,2013-01-06 23:26:00,
2013-01-06 23:31:00,50.1,50.1,30.18,NNW,343,10.4,10.4,100,0.02,RA,,0.13,0.0,WeatherDisplay:10.37,2013-01-06 23:31:00,
2013-01-06 23:36:00,50.1,50.1,30.18,NNW,340,10.4,10.4,100,0.02,CLR,,0.13,0.0,WeatherDisplay:10.37,2013-01-06 23:36:00,
2013-01-06 23:41:00,50.1,50.1,30.18,NNW,340,5.8,5.8,100,0.01,CLR,,0.13,0.0,WeatherDisplay:10.37,2013-01-06 23:41:00,
2013-01-06 23:46:00,50.1,50.1,30.18,WSW,257,6.9,6.9,100,0.02,RA,,0.14,0.0,WeatherDisplay:10.37,2013-01-06 23:46:00,
2013-01-06 23:52:00,50.2,50.2,30.18,SW,219,10.4,10.4,100,0.02,RA,,0.14,0.0,WeatherDisplay:10.37,2013-01-06 23:52:00,
2013-01-06 23:57:00,50.2,50.2,30.18,WSW,241,5.8,5.8,100,0.02,CLR,,0.14,0.0,WeatherDisplay:10.37,2013-01-06 23:57:00,